Regional Weather Roundup
Issued by NWS

Home | Current Version | Previous Version | Graphics & Text | Print | Product List | Glossary On
Versions: 1 2 3 4 5 6 7 8 9 10 11 12 13 14 15 16 17 18 19 20 21 22 23 24 25 26 27 28 29 30 31 32 33 34 35 36 37 38 39 40 41 42 43 44 45 46 47 48 49 50
000
ASUS44 KMEG 251810
RWRTN
TENNESSEE HOURLY STATE WEATHER ROUNDUP
NATIONAL WEATHER SERVICE MEMPHIS TN
100 PM CDT MON MAY 25 2015

TNZ002-004-019-021-049-052-054-088>092-251900-
WEST TENNESSEE

CITY           SKY/WX    TMP DP  RH WIND       PRES   REMARKS
MEMPHIS INTL   CLOUDY    79  68  69 S10       30.08F
NWS MEMPHIS      N/A     79 N/A N/A MISG        N/A
JACKSON        CLOUDY    72  67  84 S8        30.12R
DYERSBURG      CLOUDY    73  57  56 S5        30.10S
PARIS          CLOUDY    70  66  88 S12       30.12F
LEXINGTON      PTSUNNY   70  68  94 S7        30.13R
$$

TNZ008-025-027-028-033-062-065-066-251900-
NORTH MIDDLE TENNESSEE

CITY           SKY/WX    TMP DP  RH WIND       PRES   REMARKS
NASHVILLE      CLOUDY    69  67  93 E6        30.15F
CLARKSVILLE    LGT RAIN  68  67  96 SE6       30.14F
SMYRNA         CLOUDY    72  68  87 SE6       30.16F
COOKEVILLE     PTSUNNY   75  64  69 SW9       30.20S
CROSSVILLE     PTSUNNY   75  60  59 S9G21     30.26F
$$

TNZ061-075-076-078-094-096-097-251900-
SOUTH MIDDLE TENNESSEE

CITY           SKY/WX    TMP DP  RH WIND       PRES   REMARKS
FAYETTEVILLE   CLOUDY   N/A N/A N/A MISG      30.20S
TULLAHOMA      PTSUNNY   73  64  73 S6        30.21S
WINCHESTER     MOSUNNY   75  66  73 S13       30.20F
MCMINNVILLE    CLOUDY    75  64  69 VRB5      30.21S
COLUMBIA       PTSUNNY   70  66  88 SW13      30.16R
SHELBYVILLE    MOSUNNY   75  70  83 S14       30.20S
$$

TNZ017-018-042-046-047-251900-
NORTHEAST TENNESSEE

CITY           SKY/WX    TMP DP  RH WIND       PRES   REMARKS
TRI CITIES     MOSUNNY   84  54  35 VRB3      30.25F
ELIZABETHTON   CLEAR     82  55  39 SW10      30.26F
$$

TNZ012-013-036-069-073-074-251900-
CENTRAL EAST TENNESSEE

CITY           SKY/WX    TMP DP  RH WIND       PRES   REMARKS
KNOXVILLE      PTSUNNY   82  57  42 S10       30.21F
OAK RIDGE      MOSUNNY   85  59  41 VRB7G17   30.23F
GATLINBURG       N/A     84  54  34 CALM      30.21F
MORRISTOWN     CLEAR     82  59  44 S9        30.25F
$$

TNZ083-085-099-251900-
SOUTHEAST TENNESSEE

CITY           SKY/WX    TMP DP  RH WIND       PRES   REMARKS
CHATTANOOGA    CLOUDY    80  63  55 S10G18    30.22F
$$

SKY/WX REPORTED AS FAIR MEANS FEW OR NO CLOUDS BELOW
12 THOUSAND FEET.




USA.gov is the U.S. government's official web portal to all federal, state and local government web resources and services.